This is the latest recevied weather packets stored in our database for station/object EB1BWO-11. If no packets are shown the sender has not sent any weather packets the latest 10 day(s).
| Time | Temp. | Humidity | Pressure | Rain* | Wind** | Luminosity | Snow |
|---|---|---|---|---|---|---|---|
| 1788316666 | 15° C | 67% | 1025 hPa | - | - | - | - |
| 1788315766 | 15° C | 66% | 1025.2 hPa | - | - | - | - |
| 1788314866 | 15° C | 66% | 1025.1 hPa | - | - | - | - |
| 1788313966 | 15.56° C | 66% | 1025.1 hPa | - | - | - | - |
| 1788313066 | 15.56° C | 65% | 1025.2 hPa | - | - | - | - |
| 1788312166 | 15.56° C | 65% | 1025.3 hPa | - | - | - | - |
| 1788311266 | 15.56° C | 67% | 1025.3 hPa | - | - | - | - |
| 1788310365 | 16.11° C | 65% | 1025.4 hPa | - | - | - | - |
| 1788309465 | 16.11° C | 64% | 1025.4 hPa | - | - | - | - |
| 1788308565 | 16.67° C | 64% | 1025.4 hPa | - | - | - | - |
| 1788307665 | 16.67° C | 63% | 1025.3 hPa | - | - | - | - |
| 1788306765 | 16.67° C | 65% | 1025.2 hPa | - | - | - | - |
| 1788305864 | 16.67° C | 64% | 1025.3 hPa | - | - | - | - |
| 1788304964 | 17.22° C | 64% | 1025.4 hPa | - | - | - | - |
| 1788304064 | 17.22° C | 65% | 1025.3 hPa | - | - | - | - |
| 1788303163 | 17.22° C | 64% | 1025.1 hPa | - | - | - | - |
| 1788302263 | 17.78° C | 63% | 1025.1 hPa | - | - | - | - |
| 1788301363 | 18.33° C | 63% | 1025 hPa | - | - | - | - |
| 1788300463 | 18.33° C | 63% | 1025.2 hPa | - | - | - | - |
| 1788299563 | 18.33° C | 63% | 1025.2 hPa | - | - | - | - |
| 1788298663 | 18.89° C | 63% | 1025.1 hPa | - | - | - | - |
| 1788297763 | 18.89° C | 62% | 1024.9 hPa | - | - | - | - |
| 1788296863 | 19.44° C | 62% | 1025.1 hPa | - | - | - | - |
| 1788295963 | 19.44° C | 62% | 1025.1 hPa | - | - | - | - |
| 1788295055 | 20° C | 62% | 1025.1 hPa | - | - | - | - |
* Rain since midnight (hover to see other rain measurements)
** Current wind speed in m/s (hover to see current wind gust speed)